Timestamp,Temp,Chill,HIndex,Humid,Dewpt,Wind,HiWind,WindDir,Rain,RainRate,Barom,Solar,ET,UV,InsideTemp,InsideHumid
2016-05-14 00:00:00,42.7,40.4375707990546,42.7,77,36.0007563593919,4,9,337.5,0,0,29.842,0,0.001,0,56,47
2016-05-14 00:05:00,42.7,39.6437136621969,42.7,77,36.0007563593919,5,9,0,0,0,29.845,0,0,0,56.1,47
2016-05-14 00:10:00,42.6,40.3220546680891,42.6,77,35.9037877966926,4,8,0,0,0,29.843,0,0,0,56,47
2016-05-14 00:15:00,42.6,42.6,42.6,77,35.9037877966926,3,8,315,0,0,29.845,0,0,0,56,47
2016-05-14 00:20:00,42.6,42.6,42.6,77,35.9037877966926,2,6,0,0,0,29.843,0,0,0,55.7,47
2016-05-14 00:25:00,42.7,42.7,42.7,77,36.0007563593919,3,7,315,0,0,29.844,0,0,0,55.7,47
2016-05-14 00:30:00,42.6,42.6,42.6,77,35.9037877966926,3,10,0,0,0,29.841,0,0,0,55.7,47
2016-05-14 00:35:00,42.6,42.6,42.6,77,35.9037877966926,2,7,337.5,0,0,29.846,0,0,0,55.5,47
2016-05-14 00:40:00,42.5,42.5,42.5,77,35.8068185584835,2,5,337.5,0,0,29.847,0,0,0,55.4,47
2016-05-14 00:45:00,42.5,42.5,42.5,77,35.8068185584835,1,5,315,0,0,29.842,0,0,0,55.2,47
2016-05-14 00:50:00,42.4,42.4,42.4,77,35.7098486447574,3,6,315,0,0,29.844,0,0,0,55.2,48
2016-05-14 00:55:00,42.4,42.4,42.4,77,35.7098486447574,1,5,315,0,0,29.845,0,0,0,55.2,48
2016-05-14 01:00:00,42.3,42.3,42.3,77,35.6128780555073,2,7,0,0,0,29.84,0,0.001,0,54.9,47
2016-05-14 01:05:00,42.2,39.8599901442269,42.2,77,35.5159067907261,4,9,315,0,0,29.841,0,0,0,54.9,47
2016-05-14 01:10:00,42.2,42.2,42.2,76,35.1869558049094,3,7,315,0,0,29.845,0,0,0,55.1,47
2016-05-14 01:15:00,42.1,39.7444740132614,42.1,76,35.0901316858867,4,8,337.5,0,0,29.844,0,0,0,55.1,47
2016-05-14 01:20:00,42,42,42,76,34.9933068591528,3,7,292.5,0,0,29.845,0,0,0,55.1,47
2016-05-14 01:25:00,41.9,41.9,41.9,76,34.8964813246998,3,8,292.5,0,0,29.843,0,0,0,55.1,47
2016-05-14 01:30:00,41.7,41.7,41.7,76,34.7028281326058,3,7,337.5,0,0,29.845,0,0,0,54.8,47
2016-05-14 01:35:00,41.6,41.6,41.6,76,34.6060004749493,3,6,315,0,0,29.843,0,0,0,54.6,46
2016-05-14 01:40:00,41.3,38.820344965537,41.3,76,34.3155132554483,4,8,337.5,0,0,29.847,0,0,0,54.5,46
2016-05-14 01:45:00,41.2,37.8818754378215,41.2,76,34.2186827667449,5,9,337.5,0,0,29.842,0,0,0,54.5,46
2016-05-14 01:50:00,41.1,41.1,41.1,76,34.1218515702605,3,9,337.5,0,0,29.848,0,0,0,54.6,46
2016-05-14 01:55:00,41.1,41.1,41.1,76,34.1218515702605,2,6,337.5,0,0,29.849,0,0,0,54.5,46
2016-05-14 02:00:00,41.1,41.1,41.1,75,33.7906967971718,2,7,315,0,0,29.845,0,0.001,0,54.5,45
2016-05-14 02:05:00,41.3,41.3,41.3,75,33.9840602292339,1,10,337.5,0,0,29.848,0,0,0,54.6,45
2016-05-14 02:10:00,41.4,41.4,41.4,74,33.7452085130534,2,8,337.5,0,0,29.848,0,0,0,54.6,45
2016-05-14 02:15:00,41.5,41.5,41.5,74,33.8417375195959,2,7,315,0,0,29.846,0,0,0,54.8,45
2016-05-14 02:20:00,41.6,41.6,41.6,74,33.9382657532118,2,6,315,0,0,29.845,0,0,0,54.8,45
2016-05-14 02:25:00,41.6,41.6,41.6,74,33.9382657532118,3,7,315,0,0,29.845,0,0,0,54.8,45
2016-05-14 02:30:00,41.6,41.6,41.6,73,33.5983971133156,3,6,315,0,0,29.847,0,0,0,54.9,45
2016-05-14 02:35:00,41.7,41.7,41.7,74,34.0347932139105,3,5,315,0,0,29.847,0,0,0,55.1,45
2016-05-14 02:40:00,41.7,41.7,41.7,74,34.0347932139105,1,4,315,0,0,29.851,0,0,0,54.9,45
2016-05-14 02:45:00,41.7,41.7,41.7,74,34.0347932139105,2,6,315,0,0,29.853,0,0,0,54.6,46
2016-05-14 02:50:00,41.7,41.7,41.7,74,34.0347932139105,1,5,315,0,0,29.854,0,0,0,54.5,45
2016-05-14 02:55:00,41.7,41.7,41.7,74,34.0347932139105,0,2,0,0,0,29.855,0,0,0,54.2,46
2016-05-14 03:00:00,41.6,41.6,41.6,74,33.9382657532118,2,5,315,0,0,29.853,0,0.001,0,54.3,46
2016-05-14 03:05:00,41.6,41.6,41.6,74,33.9382657532118,2,6,315,0,0,29.852,0,0,0,54.5,46
2016-05-14 03:10:00,41.6,41.6,41.6,74,33.9382657532118,2,6,292.5,0,0,29.854,0,0,0,54.5,45
2016-05-14 03:15:00,41.5,41.5,41.5,74,33.8417375195959,1,5,292.5,0,0,29.857,0,0,0,54.3,45
2016-05-14 03:20:00,41.5,41.5,41.5,74,33.8417375195959,2,6,292.5,0,0,29.856,0,0,0,54.2,45
2016-05-14 03:25:00,41.6,41.6,41.6,74,33.9382657532118,1,4,292.5,0,0,29.855,0,0,0,54.2,45
2016-05-14 03:30:00,41.6,41.6,41.6,74,33.9382657532118,1,5,292.5,0,0,29.856,0,0,0,54.2,46
2016-05-14 03:35:00,41.6,41.6,41.6,74,33.9382657532118,1,4,292.5,0,0,29.858,0,0,0,54.2,46
2016-05-14 03:40:00,41.6,41.6,41.6,74,33.9382657532118,0,4,0,0,0,29.859,0,0,0,54,45
2016-05-14 03:45:00,41.6,41.6,41.6,74,33.9382657532118,2,6,292.5,0,0,29.859,0,0,0,54,46
2016-05-14 03:50:00,41.6,41.6,41.6,74,33.9382657532118,2,6,292.5,0,0,29.859,0,0,0,54,46
2016-05-14 03:55:00,41.6,41.6,41.6,74,33.9382657532118,1,6,292.5,0,0,29.859,0,0,0,54,46
2016-05-14 04:00:00,41.7,41.7,41.7,73,33.6947719565357,3,9,337.5,0,0,29.854,0,0,0,54.3,45
2016-05-14 04:05:00,41.7,41.7,41.7,73,33.6947719565357,2,6,315,0,0,29.857,0,0,0,54.6,44
2016-05-14 04:10:00,41.7,41.7,41.7,72,33.350609216357,2,7,315,0,0,29.856,0,0,0,54.6,44
2016-05-14 04:15:00,41.7,37.7827823618005,41.7,72,33.350609216357,6,9,337.5,0,0,29.857,0,0,0,54.6,44
2016-05-14 04:20:00,41.8,41.8,41.8,72,33.4468288669212,3,7,337.5,0,0,29.857,0,0,0,54.6,44
2016-05-14 04:25:00,41.8,39.3979256203647,41.8,71,33.098258997301,4,9,337.5,0,0,29.862,4,0,0,54.8,43
2016-05-14 04:30:00,41.8,41.8,41.8,71,33.098258997301,3,6,337.5,0,0,29.859,7,0,0,54.6,43
2016-05-14 04:35:00,41.9,41.9,41.9,71,33.1943216074842,3,8,315,0,0,29.855,10,0,0,54.6,43
2016-05-14 04:40:00,41.9,41.9,41.9,71,33.1943216074842,3,7,337.5,0,0,29.862,12,0,0,54.6,43
2016-05-14 04:45:00,41.9,41.9,41.9,71,33.1943216074842,3,8,337.5,0,0,29.858,19,0,0,54.8,43
2016-05-14 04:50:00,41.9,39.5134417513303,41.9,71,33.1943216074842,4,8,292.5,0,0,29.86,29,0,0,54.8,43
2016-05-14 04:55:00,41.9,41.9,41.9,70,32.8412269491676,3,7,292.5,0,0,29.859,35,0,0,54.9,43
2016-05-14 05:00:00,41.9,41.9,41.9,70,32.8412269491676,2,6,292.5,0,0,29.86,37,0.001,0,54.8,43
2016-05-14 05:05:00,41.9,41.9,41.9,70,32.8412269491676,2,5,292.5,0,0,29.86,42,0,0,54.9,43
2016-05-14 05:10:00,41.9,41.9,41.9,70,32.8412269491676,1,6,292.5,0,0,29.863,47,0,0,54.9,42
2016-05-14 05:15:00,41.9,41.9,41.9,70,32.8412269491676,3,8,315,0,0,29.861,47,0,0,54.6,43
2016-05-14 05:20:00,41.9,41.9,41.9,70,32.8412269491676,3,6,337.5,0,0,29.862,53,0,0,54.8,42
2016-05-14 05:25:00,41.9,41.9,41.9,70,32.8412269491676,1,5,22.5,0,0,29.861,65,0,0,54.6,42
2016-05-14 05:30:00,42,42,42,70,32.9371306239573,2,6,315,0,0,29.863,91,0,0,54.6,43
2016-05-14 05:35:00,42,42,42,70,32.9371306239573,1,5,315,0,0,29.861,92,0,0,54.6,42
2016-05-14 05:40:00,42.2,42.2,42.2,70,33.1289352534823,2,6,315,0,0,29.863,89,0,0,54.6,43
2016-05-14 05:45:00,42.3,42.3,42.3,70,33.2248362082434,1,5,247.5,0,0,29.863,132,0,0,54.3,43
2016-05-14 05:50:00,42.5,42.5,42.5,70,33.4166353978271,1,5,247.5,0,0,29.863,178,0,0,54.2,43
2016-05-14 05:55:00,42.7,42.7,42.7,70,33.6084309609117,1,5,247.5,0,0,29.865,178,0,0.3,54.2,43
2016-05-14 06:00:00,42.9,42.9,42.9,70,33.8002228976002,1,5,247.5,0,0,29.865,216,0.002,0.5,54.5,43
2016-05-14 06:05:00,43.2,43.2,43.2,70,34.0879040033651,2,5,247.5,0,0,29.863,117,0,0.3,54.6,43
2016-05-14 06:10:00,43.4,43.4,43.4,69,33.9197021445794,2,6,315,0,0,29.863,138,0,0.6,54.6,43
2016-05-14 06:15:00,43.5,40.5833607151971,43.5,68,33.6506444990693,5,9,292.5,0,0,29.865,192,0,0.6,54.9,42
2016-05-14 06:20:00,43.6,43.6,43.6,68,33.7462107646893,2,6,315,0,0,29.869,243,0,0.7,55.1,42
2016-05-14 06:25:00,43.8,43.8,43.8,68,33.9373403703223,3,8,0,0,0,29.868,250,0,0.8,54.9,42
2016-05-14 06:30:00,44,44,44,67,33.758084387123,3,7,292.5,0,0,29.87,253,0,0.8,55.1,42
2016-05-14 06:35:00,44.2,40.7601072805974,44.2,66,33.5732441618696,6,10,292.5,0,0,29.866,268,0,0.9,55.4,42
2016-05-14 06:40:00,44.4,44.4,44.4,66,33.7636993309584,3,9,315,0,0,29.867,286,0,1,55.5,41
2016-05-14 06:45:00,44.7,41.9928312946975,44.7,66,34.0493742463432,5,9,0,0,0,29.869,296,0,1,55.7,41
2016-05-14 06:50:00,44.9,42.2277430579475,44.9,65,33.8579398946033,5,10,337.5,0,0,29.87,190,0,0.9,56.1,41
2016-05-14 06:55:00,44.9,42.9789256802966,44.9,65,33.8579398946033,4,9,292.5,0,0,29.871,126,0,0.9,56.5,41
2016-05-14 07:00:00,44.9,42.9789256802966,44.9,65,33.8579398946033,4,9,337.5,0,0,29.87,253,0.004,1.2,56.7,40
2016-05-14 07:05:00,45,42.3451989395726,45,65,33.9529916524157,5,11,315,0,0,29.874,452,0,1.2,56.8,40
2016-05-14 07:10:00,45.5,41.2856716680713,45.5,63,33.6465693072684,8,16,22.5,0,0,29.874,371,0,1.3,56.8,38
2016-05-14 07:15:00,45.8,42.1277468957651,45.8,61,33.1256927627747,7,12,315,0,0,29.874,263,0,1,57,39
2016-05-14 07:20:00,45.8,42.6655952286274,45.8,62,33.5310484058241,6,13,337.5,0,0,29.882,192,0,1,57,39
2016-05-14 07:25:00,45.7,42.0072319877408,45.7,62,33.4365264785635,7,15,337.5,0,0,29.886,182,0,1,57.3,38
2016-05-14 07:30:00,45.6,41.8867170797166,45.6,62,33.3420033622551,7,15,0,0,0,29.879,174,0,1.1,57.3,38
2016-05-14 07:35:00,45.4,40.7302979767813,45.4,61,32.7483111302502,9,18,337.5,0,0,29.882,205,0,1.2,57.3,38
2016-05-14 07:40:00,45.3,41.0421210845984,45.3,61,32.6539626569603,8,13,337.5,0,0,29.885,184,0,1.2,57.1,38
2016-05-14 07:45:00,45.2,41.4046574476196,45.2,62,32.963899006094,7,16,337.5,0,0,29.882,204,0,1.2,57.3,38
2016-05-14 07:50:00,45.3,41.5251723556438,45.3,62,33.0584268788183,7,15,315,0,0,29.884,230,0,1.3,57.6,38
2016-05-14 07:55:00,45.6,42.4274092351236,45.6,62,33.3420033622551,6,14,315,0,0,29.888,264,0,1.4,57.9,38
2016-05-14 08:00:00,46,42.3687767118135,46,61,33.3143762229905,7,13,337.5,0,0,29.886,260,0.006,1.6,57.9,38
2016-05-14 08:05:00,45.9,42.7846882253793,45.9,62,33.6255691440591,6,10,337.5,0,0,29.884,222,0,1.4,58.2,37
2016-05-14 08:10:00,45.9,41.7727728350173,45.9,60,32.8085818999156,8,16,337.5,0,0,29.885,241,0,1.5,58.2,37
2016-05-14 08:15:00,46,42.3687767118135,46,60,32.9027421528655,7,15,337.5,0,0,29.888,347,0,1.9,58.5,37
2016-05-14 08:20:00,46.2,43.7546695190729,46.2,60,33.0910588688979,5,14,45,0,0,29.888,273,0,2.2,58.4,36
2016-05-14 08:25:00,47.4,44.5710831766574,47.4,60,34.2208530594751,6,12,337.5,0,0,29.889,652,0,2.6,58.2,37
2016-05-14 08:30:00,47.5,44.6901761734092,47.5,58,33.467650726508,6,14,315,0,0,29.89,441,0,2.2,58.5,36
2016-05-14 08:35:00,47.3,44.4519901799055,47.3,59,33.7065794672092,6,10,315,0,0,29.888,145,0,1.7,58.4,37
2016-05-14 08:40:00,46.7,43.7374321993942,46.7,58,32.7174465232486,6,14,315,0,0,29.886,226,0,2.3,58.4,36
2016-05-14 08:45:00,47.2,43.8149556081045,47.2,58,33.1863341919902,7,14,292.5,0,0,29.888,610,0,3.4,58.4,36
2016-05-14 08:50:00,48.9,47.5995709189183,48.9,56,33.9013851692107,4,10,315,0,0,29.889,698,0,3.1,58.4,37
2016-05-14 08:55:00,48.3,45.1406195963712,48.3,55,32.8924075521075,7,13,315,0,0,29.89,440,0,3.1,58.5,36
2016-05-14 09:00:00,47.6,43.4343092213328,47.6,55,32.2400945450614,9,15,337.5,0,0,29.895,343,0.009,3.1,58.4,36
2016-05-14 09:05:00,47.6,44.8092691701611,47.6,56,32.6874667502577,6,13,45,0,0,29.894,717,0,3.7,58.4,36
2016-05-14 09:10:00,47.9,45.1665481604167,47.9,57,33.4085642368888,6,14,337.5,0,0,29.893,643,0,2.9,58.2,36
2016-05-14 09:15:00,47.8,45.0474551636649,47.8,57,33.3149881108466,6,15,315,0,0,29.894,273,0,2.7,58.5,36
2016-05-14 09:20:00,48.1,45.9863312699484,48.1,56,33.1543867723947,5,9,0,0,0,29.895,241,0,2.9,58.7,36
2016-05-14 09:25:00,48.2,45.5238271506724,48.2,57,33.6892843517473,6,11,315,0,0,29.897,497,0,3.3,58.8,36
2016-05-14 09:30:00,49,47.7150870498839,49,57,34.4378107327565,4,11,292.5,0,0,29.899,380,0,3.4,59,37
2016-05-14 09:35:00,48.7,45.1824810036387,48.7,56,33.7146440660599,8,14,315,0,0,29.902,703,0,4.2,58.8,36
2016-05-14 09:40:00,49.2,46.2252537685894,49.2,55,33.7309909077459,7,12,22.5,0,0,29.903,871,0,4.5,58.8,35
2016-05-14 09:45:00,50.5,50.5,50.5,53,34.0137224489643,6,10,337.5,0,0,29.9,940,0,5.1,59,36
2016-05-14 09:50:00,50.4,50.4,50.4,53,33.9209722495269,8,14,337.5,0,0,29.905,642,0,4,59.3,35
2016-05-14 09:55:00,51,51,51,52,34.0005841904219,6,10,45,0,0,29.904,944,0,5.2,59.3,36
2016-05-14 10:00:00,51.5,51.5,51.5,51,33.97716234854,5,11,22.5,0,0,29.902,639,0.013,4.1,59.6,35
2016-05-14 10:05:00,51.1,51.1,51.1,53,34.57019141304,7,18,0,0,0,29.903,888,0,4.6,59.9,36
2016-05-14 10:10:00,50.1,50.1,50.1,53,33.6427124411528,7,12,337.5,0,0,29.909,609,0,3.9,59.9,35
2016-05-14 10:15:00,49.2,46.2252537685894,49.2,53,32.8078501165572,7,16,0,0,0,29.906,312,0,3.5,59.6,34
2016-05-14 10:20:00,49.6,46.7073134006863,49.6,52,32.7049211016933,7,12,315,0,0,29.905,886,0,4.8,59.3,34
2016-05-14 10:25:00,50.5,50.5,50.5,51,33.0538861313488,7,12,0,0,0,29.908,974,0,5.8,59.4,34
2016-05-14 10:30:00,50.1,50.1,50.1,52,33.1676933760056,7,11,337.5,0,0,29.906,424,0,3.1,59.7,34
2016-05-14 10:35:00,50.1,50.1,50.1,55,34.5694563905878,7,14,0,0,0,29.91,292,0,2.7,60,35
2016-05-14 10:40:00,49.5,46.1566833375305,49.5,53,33.086151375697,8,16,337.5,0,0,29.911,260,0,3.3,60,35
2016-05-14 10:45:00,49.5,46.1566833375305,49.5,55,34.0104924977766,8,12,0,0,0,29.91,692,0,5.1,59.7,35
2016-05-14 10:50:00,50.3,50.3,50.3,53,33.8282205151045,8,12,0,0,0,29.907,874,0,5.6,59.6,35
2016-05-14 10:55:00,50.9,50.9,50.9,52,33.9080470693508,8,14,315,0,0,29.905,901,0,6.1,59.7,35
2016-05-14 11:00:00,50.9,50.9,50.9,52,33.9080470693508,8,18,337.5,0,0,29.906,923,0.014,5.8,59.9,35
2016-05-14 11:05:00,52.1,52.1,52.1,50,34.0351955731346,6,12,337.5,0,0,29.908,950,0,6.2,60,35
2016-05-14 11:10:00,52.8,52.8,52.8,50,34.6798357725713,4,12,292.5,0,0,29.908,1006,0,6,60.2,35
2016-05-14 11:15:00,52.3,52.3,52.3,49,33.7142576364641,8,15,0,0,0,29.908,1024,0,6.4,60.2,34
2016-05-14 11:20:00,53.1,53.1,53.1,49,34.4492251635966,5,15,337.5,0,0,29.903,973,0,6.5,60.3,34
2016-05-14 11:25:00,52.3,52.3,52.3,49,33.7142576364641,6,12,22.5,0,0,29.906,993,0,6.5,60,34
2016-05-14 11:30:00,52.7,52.7,52.7,49,34.0817550018121,5,12,0,0,0,29.901,999,0,6.5,60.3,34
2016-05-14 11:35:00,53.5,53.5,53.5,47,33.7731339183167,6,13,22.5,0,0,29.902,955,0,6.3,60.5,34
2016-05-14 11:40:00,53.8,53.8,53.8,46,33.5101140504355,6,12,337.5,0,0,29.899,924,0,6.2,60.7,33
2016-05-14 11:45:00,54.1,54.1,54.1,45,33.2352723736507,6,15,0,0,0,29.904,923,0,6,60.8,33
2016-05-14 11:50:00,53.1,53.1,53.1,47,33.4074686804084,9,16,315,0,0,29.901,872,0,5.6,60.8,32
2016-05-14 11:55:00,52.3,52.3,52.3,48,33.199934768898,6,12,45,0,0,29.901,455,0,4.7,61,33
2016-05-14 12:00:00,51.6,51.6,51.6,48,32.5582869933405,8,14,45,0,0,29.908,295,0.019,3.8,61.1,32
2016-05-14 12:05:00,52.7,52.7,52.7,47,33.0417748615357,5,15,315,0,0,29.901,984,0,6.5,61.3,32
2016-05-14 12:10:00,54,54,54,47,34.2301752788248,7,14,315,0,0,29.906,998,0,6.4,61.4,33
2016-05-14 12:15:00,53.1,53.1,53.1,48,33.9331419162837,4,8,292.5,0,0,29.906,609,0,4.3,61.6,32
2016-05-14 12:20:00,52.5,52.5,52.5,47,32.8589172331904,5,11,315,0,0,29.904,299,0,3.4,61.4,32
2016-05-14 12:25:00,52.8,52.8,52.8,47,33.1332009959025,6,13,22.5,0,0,29.905,1027,0,5.6,61.3,32
2016-05-14 12:30:00,53,53,53,47,33.3160479052866,8,15,337.5,0,0,29.907,1034,0,5.9,61.3,32
2016-05-14 12:35:00,53.4,53.4,53.4,48,34.2080658375466,5,11,0,0,0,29.908,1027,0,5.5,61.6,33
2016-05-14 12:40:00,53.3,53.3,53.3,46,33.0541958729445,5,10,337.5,0,0,29.908,1035,0,5.9,61.9,32
2016-05-14 12:45:00,54.1,54.1,54.1,47,34.3215781931996,5,11,292.5,0,0,29.911,1043,0,5.6,61.8,32
2016-05-14 12:50:00,53.9,53.9,53.9,46,33.6012921959015,5,13,0,0,0,29.911,472,0,5.1,61.8,32
2016-05-14 12:55:00,53.6,53.6,53.6,47,33.8645457624107,6,12,337.5,0,0,29.909,672,0,4.9,61.8,32
2016-05-14 13:00:00,53.9,53.9,53.9,46,33.6012921959015,6,10,0,0,0,29.909,955,0.017,6.1,61.8,32
2016-05-14 13:05:00,55.3,55.3,55.3,46,34.8775941198582,7,14,337.5,0,0,29.908,1000,0,6,61.9,33
2016-05-14 13:10:00,54.2,54.2,54.2,46,33.8748156532269,8,18,315,0,0,29.905,707,0,4.7,61.9,32
2016-05-14 13:15:00,53.9,53.9,53.9,47,34.1387705786108,6,12,22.5,0,0,29.908,280,0,3.4,61.6,32
2016-05-14 13:20:00,53.6,53.6,53.6,47,33.8645457624107,4,9,337.5,0,0,29.906,517,0,4.4,61.6,32
2016-05-14 13:25:00,54.2,54.2,54.2,46,33.8748156532269,8,15,337.5,0,0,29.908,942,0,5.7,61.4,32
2016-05-14 13:30:00,55.4,55.4,55.4,45,34.4173467866588,6,12,292.5,0,0,29.905,783,0,4.3,61.4,32
2016-05-14 13:35:00,54.5,54.5,54.5,45,33.5990213103425,5,11,45,0,0,29.908,304,0,4.3,61.8,32
2016-05-14 13:40:00,55.5,55.5,55.5,45,34.508262470743,6,18,292.5,0,0,29.902,1023,0,5.5,61.9,32
2016-05-14 13:45:00,55.8,55.8,55.8,44,34.21771539737,6,13,0,0,0,29.908,445,0,4.1,62.2,31
2016-05-14 13:50:00,54.3,54.3,54.3,45,33.4171505904981,6,10,0,0,0,29.906,300,0,2.8,62.2,31
2016-05-14 13:55:00,53.9,53.9,53.9,45,33.0533866593368,5,13,0,0,0,29.905,334,0,3,62.2,31
2016-05-14 14:00:00,54.1,54.1,54.1,46,33.7836429972421,6,13,337.5,0,0,29.908,412,0.015,4.3,62.4,31
2016-05-14 14:05:00,54.7,54.7,54.7,45,33.7808845336476,6,12,292.5,0,0,29.906,466,0,3.1,62.7,31
2016-05-14 14:10:00,55.4,55.4,55.4,45,34.4173467866588,3,8,315,0,0,29.905,1032,0,4.2,62.7,31
2016-05-14 14:15:00,55.8,55.8,55.8,44,34.21771539737,5,11,292.5,0,0,29.907,449,0,2.8,62.9,31
2016-05-14 14:20:00,54.6,54.6,54.6,44,33.1295196964924,6,11,337.5,0,0,29.906,346,0,2.5,62.9,31
2016-05-14 14:25:00,54.3,54.3,54.3,45,33.4171505904981,5,10,337.5,0,0,29.908,418,0,2.7,63,31
2016-05-14 14:30:00,54.2,54.2,54.2,45,33.3262124192287,7,13,315,0,0,29.906,339,0,2.6,63.2,31
2016-05-14 14:35:00,54.7,54.7,54.7,45,33.7808845336476,5,11,315,0,0,29.905,318,0,3.6,63.2,31
2016-05-14 14:40:00,54.2,54.2,54.2,45,33.3262124192287,6,13,22.5,0,0,29.905,395,0,2.5,63,30
2016-05-14 14:45:00,54.2,54.2,54.2,45,33.3262124192287,4,11,315,0,0,29.904,345,0,2.2,63,31
2016-05-14 14:50:00,54.1,54.1,54.1,47,34.3215781931996,5,11,45,0,0,29.902,391,0,2.7,63.2,31
2016-05-14 14:55:00,54.1,54.1,54.1,47,34.3215781931996,3,9,337.5,0,0,29.901,298,0,2.1,63.2,32
2016-05-14 15:00:00,54.6,54.6,54.6,47,34.7785659793177,1,6,45,0,0,29.9,280,0.011,2.3,63.2,32
2016-05-14 15:05:00,54.1,54.1,54.1,47,34.3215781931996,5,11,45,0,0,29.898,299,0,2,63.3,31
2016-05-14 15:10:00,54.1,54.1,54.1,48,34.8494939936469,4,10,45,0,0,29.897,385,0,2.2,63.3,32
2016-05-14 15:15:00,54.1,54.1,54.1,48,34.8494939936469,5,10,337.5,0,0,29.898,374,0,2.4,63.5,32
2016-05-14 15:20:00,54.7,54.7,54.7,47,34.8699581797565,4,12,22.5,0,0,29.894,743,0,2.9,63.3,32
2016-05-14 15:25:00,55.4,55.4,55.4,46,34.9687448228746,3,7,22.5,0,0,29.893,710,0,3,63.3,31
2016-05-14 15:30:00,55.8,55.8,55.8,47,35.8751545548847,3,10,0,0,0,29.895,723,0,2.8,63.3,32
2016-05-14 15:35:00,55.5,55.5,55.5,46,35.0598936968349,3,10,45,0,0,29.893,599,0,2.5,63.5,32
2016-05-14 15:40:00,56.4,56.4,56.4,46,35.8801512640348,2,8,112.5,0,0,29.894,543,0,2.5,63.6,32
2016-05-14 15:45:00,56.6,56.6,56.6,46,36.0624106084374,2,7,90,0,0,29.893,683,0,2.3,63.8,33
2016-05-14 15:50:00,56.2,56.2,56.2,46,35.6978846056095,4,11,0,0,0,29.893,644,0,2.3,63.8,32
2016-05-14 15:55:00,56.5,56.5,56.5,45,35.4173162755834,3,8,315,0,0,29.895,604,0,2.2,63.6,32
2016-05-14 16:00:00,55.7,55.7,55.7,46,35.2421859578072,4,9,0,0,0,29.897,356,0.012,1.7,63.6,32
2016-05-14 16:05:00,54.6,54.6,54.6,47,34.7785659793177,2,7,90,0,0,29.896,211,0,1.2,63.6,32
2016-05-14 16:10:00,54.3,54.3,54.3,48,35.0327434988474,3,7,112.5,0,0,29.896,304,0,1.5,63.6,32
2016-05-14 16:15:00,56.3,56.3,56.3,46,35.7890188491025,3,7,22.5,0,0,29.893,641,0,1.9,63.8,33
2016-05-14 16:20:00,56.2,56.2,56.2,45,35.1446198030194,3,9,67.5,0,0,29.894,582,0,1.6,63.8,32
2016-05-14 16:25:00,55.8,55.8,55.8,46,35.3333293449294,3,8,0,0,0,29.894,187,0,0.9,63.8,32
2016-05-14 16:30:00,55,55,55,47,35.144124068445,3,8,315,0,0,29.897,241,0,0.9,63.8,32
2016-05-14 16:35:00,54.8,54.8,54.8,48,35.4908367726304,1,5,315,0,0,29.898,284,0,1.1,63.8,32
2016-05-14 16:40:00,54.3,54.3,54.3,48,35.0327434988474,3,10,337.5,0,0,29.897,187,0,0.7,63.8,32
2016-05-14 16:45:00,54.2,54.2,54.2,48,34.9411196174174,3,9,90,0,0,29.896,198,0,0.7,63.8,33
2016-05-14 16:50:00,54.1,54.1,54.1,49,35.3677815722883,3,7,90,0,0,29.893,267,0,0.9,64,32
2016-05-14 16:55:00,54.6,54.6,54.6,48,35.3076046895919,2,6,112.5,0,0,29.897,316,0,0.9,64,33
2016-05-14 17:00:00,54.8,54.8,54.8,49,36.0106699316192,3,8,90,0,0,29.898,282,0.007,0.8,64.1,33
2016-05-14 17:05:00,54.9,54.9,54.9,48,35.5824502010615,0,2,0,0,0,29.894,289,0,0.7,64.3,32
2016-05-14 17:10:00,55.6,55.6,55.6,47,35.6924076437054,2,7,315,0,0,29.897,389,0,0.7,64.1,33
2016-05-14 17:15:00,55.3,55.3,55.3,48,35.9488864953565,1,5,337.5,0,0,29.898,418,0,0.7,64.1,32
2016-05-14 17:20:00,55.3,55.3,55.3,48,35.9488864953565,0,4,0,0,0,29.897,362,0,0.5,64.1,33
2016-05-14 17:25:00,55.5,55.5,55.5,48,36.1320941915422,2,6,315,0,0,29.895,361,0,0.3,64.3,33
2016-05-14 17:30:00,55.1,55.1,55.1,48,35.7656718319954,2,7,45,0,0,29.898,286,0,0.1,64.3,33
2016-05-14 17:35:00,54.8,54.8,54.8,49,36.0106699316192,4,8,337.5,0,0,29.9,225,0,0,64.3,33
2016-05-14 17:40:00,54.5,54.5,54.5,49,35.7351565453837,2,7,337.5,0,0,29.9,183,0,0,64.1,33
2016-05-14 17:45:00,54.5,54.5,54.5,49,35.7351565453837,2,7,22.5,0,0,29.9,235,0,0,64.1,33
2016-05-14 17:50:00,54.4,54.4,54.4,49,35.6433153512879,1,6,67.5,0,0,29.899,182,0,0,64.3,32
2016-05-14 17:55:00,54.5,54.5,54.5,49,35.7351565453837,1,5,45,0,0,29.895,251,0,0,64.5,33
2016-05-14 18:00:00,54.5,54.5,54.5,49,35.7351565453837,4,8,22.5,0,0,29.895,242,0.006,0,64.6,33
2016-05-14 18:05:00,54.1,54.1,54.1,50,35.8768092034536,4,8,22.5,0,0,29.897,203,0,0,64.6,33
2016-05-14 18:10:00,53.9,53.9,53.9,50,35.692677677442,4,7,45,0,0,29.896,187,0,0,64.6,33
2016-05-14 18:15:00,53.7,53.7,53.7,51,36.0078010282851,1,7,22.5,0,0,29.897,152,0,0,64.6,33
2016-05-14 18:20:00,53.8,53.8,53.8,51,36.1000842023997,2,6,90,0,0,29.898,153,0,0,64.9,33
2016-05-14 18:25:00,53.6,53.6,53.6,51,35.9155162384628,1,5,90,0,0,29.899,82,0,0,65.1,33
2016-05-14 18:30:00,53.3,53.3,53.3,51,35.6386521743249,1,4,22.5,0,0,29.9,73,0,0,65.1,33
2016-05-14 18:35:00,53,53,53,51,35.3617735672895,1,6,45,0,0,29.899,88,0,0,64.9,32
2016-05-14 18:40:00,52.8,52.8,52.8,52,35.6659829889383,1,5,22.5,0,0,29.897,77,0,0,64.8,33
2016-05-14 18:45:00,52.6,52.6,52.6,52,35.4809638795624,2,6,22.5,0,0,29.898,64,0,0,64.6,33
2016-05-14 18:50:00,52.3,52.3,52.3,53,35.6829635998549,2,5,22.5,0,0,29.902,36,0,0,64.3,33
2016-05-14 18:55:00,52.1,52.1,52.1,54,35.9687260879964,2,6,45,0,0,29.907,32,0,0,64.1,33
2016-05-14 19:00:00,51.8,51.8,51.8,54,35.6899366511221,2,6,45,0,0,29.906,37,0.003,0,63.8,33
2016-05-14 19:05:00,51.6,51.6,51.6,54,35.504069555815,1,5,22.5,0,0,29.911,35,0,0,63.6,33
2016-05-14 19:10:00,51.5,51.5,51.5,55,35.8735017987307,1,4,22.5,0,0,29.911,27,0,0,63.5,34
2016-05-14 19:15:00,51.4,51.4,51.4,55,35.7803651530893,2,5,90,0,0,29.91,23,0,0,63.3,34
2016-05-14 19:20:00,51.3,51.3,51.3,55,35.687227052978,2,6,90,0,0,29.911,21,0,0,63.3,34
2016-05-14 19:25:00,51.2,51.2,51.2,55,35.5940874983628,1,5,45,0,0,29.911,19,0,0,63.2,34
2016-05-14 19:30:00,51,51,51,56,35.8618248613335,1,5,45,0,0,29.913,18,0,0,63,34
2016-05-14 19:35:00,50.9,50.9,50.9,56,35.7684847448944,1,4,45,0,0,29.913,16,0,0,62.7,35
2016-05-14 19:40:00,50.9,50.9,50.9,56,35.7684847448944,1,4,45,0,0,29.918,15,0,0,62.5,35
2016-05-14 19:45:00,50.9,50.9,50.9,56,35.7684847448944,1,5,45,0,0,29.919,13,0,0,62.4,35
2016-05-14 19:50:00,50.8,50.8,50.8,56,35.6751432131978,1,5,45,0,0,29.918,7,0,0,62.2,35
2016-05-14 19:55:00,50.8,50.8,50.8,56,35.6751432131978,1,5,45,0,0,29.921,3,0,0,61.9,35
2016-05-14 20:00:00,50.8,50.8,50.8,57,36.1216729197913,0,4,0,0,0,29.923,0,0.001,0,61.9,36
2016-05-14 20:05:00,50.7,50.7,50.7,57,36.028136721124,0,3,0,0,0,29.924,0,0,0,61.9,36
2016-05-14 20:10:00,50.6,50.6,50.6,57,35.9345991460761,1,5,90,0,0,29.924,0,0,0,61.9,36
2016-05-14 20:15:00,50.5,50.5,50.5,58,36.2801534989383,1,6,112.5,0,0,29.926,0,0,0,61.8,36
2016-05-14 20:20:00,50.4,50.4,50.4,57,35.747519866717,1,6,90,0,0,29.93,0,0,0,61.8,36
2016-05-14 20:25:00,50.4,50.4,50.4,57,35.747519866717,2,6,112.5,0,0,29.93,0,0,0,61.6,36
2016-05-14 20:30:00,50.3,50.3,50.3,57,35.6539781623451,2,6,112.5,0,0,29.937,0,0,0,61.4,36
2016-05-14 20:35:00,50.1,50.1,50.1,57,35.4668906240645,4,7,90,0,0,29.937,0,0,0,61.3,36
2016-05-14 20:40:00,49.9,49.9,49.9,57,35.2797975795323,3,6,90,0,0,29.937,0,0,0,61.1,36
2016-05-14 20:45:00,49.9,49.9,49.9,58,35.7177493000978,1,5,112.5,0,0,29.936,0,0,0,61,37
2016-05-14 20:50:00,49.7,49.7,49.7,57,35.0926990285055,2,6,90,0,0,29.937,0,0,0,60.7,37
2016-05-14 20:55:00,49.6,49.6,49.6,58,35.436529136702,1,5,90,0,0,29.937,0,0,0,60.5,37
2016-05-14 21:00:00,49.3,49.3,49.3,59,35.5855057579336,2,5,90,0,0,29.936,0,0.001,0,60.5,37
2016-05-14 21:05:00,49,49,49,60,35.7269624221981,2,5,90,0,0,29.937,0,0,0,60.5,38
2016-05-14 21:10:00,48.7,48.7,48.7,61,35.8611230567688,1,5,90,0,0,29.941,0,0,0,60.3,38
2016-05-14 21:15:00,48.5,48.5,48.5,61,35.6725057814035,1,4,90,0,0,29.942,0,0,0,60.2,38